DLH4M EDDH-EDDM

Flight info

Callsign DLH4M
Flight time N/A
Altitude 29000
Route AMLUH3B/23 AMLUH M852 DENIX DCT ZUCKA DCT SODRO T703 LULAR T105 LANDU
Aircraft A321/M-DE2E3FGIJ1LORVWXYZ/HB2

Departure

Time N/A
Airport Hamburg Helmut Schmidt Airport (EDDH)

Arrival

Time 2026-05-03 20:40
Airport Munich Airport (EDDM)
Time Latitude Longitude Altitude Speed Heading
2026-05-03 20:15 50.45113 11.94885 29005 ft 468 kts 163°
2026-05-03 20:15 50.38989 11.98354 29011 ft 469 kts 161°
2026-05-03 20:16 50.33007 12.02455 29015 ft 470 kts 157°
2026-05-03 20:16 50.26899 12.05453 28999 ft 463 kts 176°
2026-05-03 20:17 50.20441 12.06479 28993 ft 464 kts 176°
2026-05-03 20:17 50.14052 12.07489 29001 ft 465 kts 176°
2026-05-03 20:18 50.07657 12.08979 29001 ft 469 kts 164°
2026-05-03 20:18 50.01647 12.13012 29004 ft 471 kts 159°
2026-05-03 20:19 49.95615 12.16987 29002 ft 471 kts 160°
2026-05-03 20:19 49.89569 12.20921 29006 ft 471 kts 159°
2026-05-03 20:20 49.83526 12.24880 29003 ft 471 kts 159°
2026-05-03 20:20 49.77493 12.28865 28990 ft 471 kts 159°
2026-05-03 20:21 49.71583 12.33262 28984 ft 474 kts 149°
2026-05-03 20:21 49.66272 12.39349 28981 ft 476 kts 145°
2026-05-03 20:22 49.60982 12.45513 28987 ft 476 kts 145°
2026-05-03 20:22 49.55687 12.51650 28989 ft 476 kts 145°
2026-05-03 20:23 49.50398 12.57774 28980 ft 476 kts 145°
2026-05-03 20:23 49.45104 12.63905 28951 ft 476 kts 145°
2026-05-03 20:24 49.39526 12.69260 28946 ft 472 kts 160°
2026-05-03 20:24 49.36391 12.70682 28927 ft 469 kts 171°
2026-05-03 20:24 49.33153 12.71176 27991 ft 468 kts 182°
2026-05-03 20:24 49.29940 12.70585 26797 ft 464 kts 194°
2026-05-03 20:25 49.26885 12.69012 25520 ft 464 kts 205°
2026-05-03 20:25 49.23955 12.66884 24354 ft 468 kts 206°
2026-05-03 20:25 49.21014 12.64772 23154 ft 463 kts 206°
2026-05-03 20:25 49.18119 12.62713 22198 ft 455 kts 206°
2026-05-03 20:26 49.15275 12.60695 21286 ft 447 kts 206°
2026-05-03 20:26 49.12471 12.58702 20408 ft 441 kts 206°
2026-05-03 20:26 49.09715 12.56740 19559 ft 434 kts 205°
2026-05-03 20:26 49.07002 12.54810 18735 ft 427 kts 205°
2026-05-03 20:27 49.04327 12.52905 17868 ft 421 kts 205°
2026-05-03 20:27 49.01697 12.51024 16902 ft 415 kts 205°
2026-05-03 20:27 48.99095 12.49160 15940 ft 411 kts 205°
2026-05-03 20:27 48.96524 12.47316 15003 ft 407 kts 205°
2026-05-03 20:28 48.94022 12.45526 14111 ft 403 kts 205°
2026-05-03 20:28 48.92293 12.44295 13470 ft 401 kts 205°
2026-05-03 20:28 48.89787 12.42511 12715 ft 394 kts 205°
2026-05-03 20:28 48.87339 12.40767 12083 ft 384 kts 205°
2026-05-03 20:29 48.84947 12.39069 11429 ft 376 kts 205°
2026-05-03 20:29 48.82631 12.37428 11220 ft 356 kts 205°
2026-05-03 20:29 48.80450 12.35881 11091 ft 336 kts 205°
2026-05-03 20:29 48.78342 12.34611 10975 ft 318 kts 197°
2026-05-03 20:30 48.76253 12.33784 10847 ft 302 kts 194°
2026-05-03 20:30 48.74261 12.33015 10671 ft 290 kts 194°
2026-05-03 20:30 48.72335 12.32275 10388 ft 284 kts 194°
2026-05-03 20:30 48.70413 12.31537 10141 ft 283 kts 194°
2026-05-03 20:31 48.68510 12.30802 9923 ft 281 kts 194°
2026-05-03 20:31 48.66618 12.30071 9800 ft 282 kts 194°
2026-05-03 20:31 48.64717 12.29339 9671 ft 282 kts 194°
2026-05-03 20:31 48.62811 12.28612 9539 ft 283 kts 194°
2026-05-03 20:32 48.60894 12.27883 9403 ft 284 kts 194°
2026-05-03 20:32 48.58980 12.27152 9172 ft 285 kts 194°
2026-05-03 20:32 48.57158 12.26455 8723 ft 285 kts 194°
2026-05-03 20:32 48.55269 12.25728 8251 ft 286 kts 194°
2026-05-03 20:33 48.53353 12.24995 7842 ft 283 kts 194°
2026-05-03 20:33 48.51448 12.24269 7317 ft 281 kts 194°
2026-05-03 20:33 48.49559 12.23550 6813 ft 279 kts 194°
2026-05-03 20:33 48.47688 12.22835 6325 ft 276 kts 194°
2026-05-03 20:34 48.45830 12.22126 5834 ft 275 kts 194°
2026-05-03 20:34 48.43983 12.21423 5520 ft 267 kts 194°
2026-05-03 20:34 48.42288 12.20605 5463 ft 246 kts 207°
2026-05-03 20:34 48.40913 12.19227 5402 ft 234 kts 224°
2026-05-03 20:35 48.39876 12.17371 5335 ft 231 kts 240°
2026-05-03 20:35 48.39231 12.15184 5244 ft 224 kts 256°
2026-05-03 20:35 48.38982 12.12868 5163 ft 226 kts 265°
2026-05-03 20:35 48.38813 12.10536 5042 ft 223 kts 265°
2026-05-03 20:36 48.38645 12.08239 4801 ft 220 kts 265°
2026-05-03 20:36 48.38478 12.05984 4524 ft 213 kts 265°
2026-05-03 20:36 48.38316 12.03802 4242 ft 207 kts 265°
2026-05-03 20:36 48.38160 12.01708 3981 ft 194 kts 266°
2026-05-03 20:37 48.38016 11.99781 3757 ft 179 kts 266°
2026-05-03 20:37 48.37880 11.97958 3520 ft 173 kts 266°
2026-05-03 20:37 48.37747 11.96173 3301 ft 171 kts 266°
2026-05-03 20:37 48.37616 11.94422 3087 ft 164 kts 266°
2026-05-03 20:38 48.37490 11.92776 2847 ft 153 kts 266°
2026-05-03 20:38 48.37376 11.91227 2625 ft 146 kts 267°
2026-05-03 20:38 48.37269 11.89768 2517 ft 140 kts 267°
2026-05-03 20:38 48.37160 11.88328 2331 ft 138 kts 265°
2026-05-03 20:39 48.37047 11.86879 2138 ft 140 kts 264°
2026-05-03 20:39 48.36933 11.85407 1951 ft 140 kts 264°
2026-05-03 20:39 48.36823 11.83968 1751 ft 141 kts 264°
2026-05-03 20:39 48.36713 11.82502 1582 ft 141 kts 264°
2026-05-03 20:40 48.36609 11.81105 1482 ft 120 kts 263°
2026-05-03 20:40 48.36534 11.80118 1483 ft 71 kts 263°
2026-05-03 20:40 48.36496 11.79634 1479 ft 29 kts 263°
2026-05-03 20:40 48.36472 11.79327 1485 ft 30 kts 263°
2026-05-03 20:41 48.36433 11.79021 1478 ft 30 kts 247°
2026-05-03 20:41 48.36325 11.78749 1478 ft 28 kts 233°
2026-05-03 20:41 48.36224 11.78551 1479 ft 18 kts 231°
2026-05-03 20:41 48.36140 11.78472 1485 ft 15 kts 175°
2026-05-03 20:42 48.36045 11.78509 1479 ft 12 kts 127°
2026-05-03 20:42 48.36040 11.78643 1485 ft 14 kts 82°
2026-05-03 20:42 48.36053 11.78799 1485 ft 16 kts 83°
2026-05-03 20:42 48.36067 11.78974 1480 ft 18 kts 83°
2026-05-03 20:43 48.36082 11.79170 1485 ft 20 kts 83°
2026-05-03 20:43 48.36072 11.79319 1471 ft 13 kts 141°
2026-05-03 20:43 48.35978 11.79337 1486 ft 15 kts 174°
2026-05-03 20:43 48.35892 11.79378 1481 ft 13 kts 161°
2026-05-03 20:44 48.35805 11.79390 1481 ft 12 kts 174°
2026-05-03 20:44 48.35738 11.79404 1485 ft 7 kts 171°
2026-05-03 20:44 48.35700 11.79386 1485 ft 5 kts 250°
2026-05-03 20:44 48.35694 11.79322 1485 ft 7 kts 263°
2026-05-03 20:45 48.35690 11.79272 1485 ft 4 kts 263°
2026-05-03 20:45 48.35688 11.79245 1476 ft 0 kts 263°